Theta_e
317 317 316 316 317 317 317 318 318 318 319 318 318 319 319 319 319 319 319 319 320 320 320 320 320 319 319 319 319 319 319 314 311 310 310 312 321 327 341 340 343 340 341 326 329 331 327 326 323 324 320 321 321 322 332 337 340 334 323 318 313 316 316 320 320 319 324 323 326 329 331 329 327 333 336 338 336 335 336 335 338 341 340 342 342 345 345 346
317 317 317 317 317 317 317 317 317 317 318 319 318 318 319 319 319 319 319 319 319 319 320 320 319 319 318 318 318 318 316 313 308 308 308 318 331 333 335 343 353 349 339 317 316 329 323 321 321 322 319 317 327 323 333 330 340 328 320 317 314 317 320 325 325 326 325 324 328 330 331 330 329 332 335 331 331 333 332 333 336 336 338 341 343 344 344 344
317 317 317 317 317 317 317 318 318 318 318 318 318 318 319 319 318 319 319 319 319 319 319 319 318 318 318 318 318 319 315 311 311 308 313 336 333 335 337 341 346 351 321 312 317 327 323 321 322 321 319 317 322 321 328 326 331 330 321 316 318 324 325 329 327 328 330 329 327 327 329 330 331 332 337 330 330 332 329 329 332 333 334 337 340 342 343 343
317 317 317 317 317 317 318 318 318 318 318 318 318 318 318 319 318 318 318 319 319 319 319 319 318 318 318 318 319 317 313 310 308 312 319 337 344 337 339 342 343 349 320 317 318 322 328 325 323 322 319 316 319 324 322 326 323 326 323 318 321 326 323 326 328 330 331 333 329 327 329 329 331 332 333 331 328 329 330 334 332 332 335 337 340 341 342 341
317 316 316 317 316 316 318 318 318 318 318 318 318 318 318 318 318 319 318 318 319 319 319 319 318 319 319 319 319 316 308 301 307 318 320 355 351 344 340 343 344 338 323 319 318 319 323 322 322 321 319 314 318 321 321 326 329 325 323 326 325 325 323 328 330 332 330 333 330 328 326 325 331 332 331 331 326 325 329 334 337 337 338 338 338 340 341 340
316 316 316 317 317 317 317 318 318 318 318 318 318 318 318 317 317 318 318 318 318 318 318 319 319 319 319 320 316 314 308 296 311 315 364 358 358 348 342 342 345 334 323 318 315 315 315 315 317 316 315 314 315 314 321 325 329 318 321 326 327 326 323 333 330 329 329 329 328 326 330 329 328 329 332 332 329 331 337 338 339 339 340 340 341 340 339 339
317 317 316 316 317 317 317 317 317 317 317 318 318 318 318 318 317 317 317 317 318 318 319 319 319 319 319 320 315 312 308 306 313 316 364 358 356 350 343 341 349 328 320 316 314 312 312 312 311 313 315 314 315 316 319 324 327 323 318 322 325 328 324 331 328 328 329 328 326 330 336 327 327 324 330 329 332 336 338 339 340 341 341 341 339 339 339 339
316 316 317 317 317 317 317 317 317 317 317 317 318 318 317 317 317 317 317 318 318 319 319 319 319 319 320 314 311 307 304 301 309 316 334 341 352 348 342 336 335 323 317 314 313 311 311 309 308 311 312 311 314 316 320 320 324 321 320 323 323 326 326 330 329 326 327 329 329 330 328 326 327 326 329 328 332 337 338 339 340 340 340 340 339 339 339 340
316 316 317 316 316 317 317 317 317 317 317 317 317 317 316 316 316 317 317 318 318 318 318 319 320 319 321 314 310 304 303 314 316 316 326 343 343 339 333 332 328 320 316 314 314 313 311 309 310 311 307 312 317 316 319 319 316 322 322 324 323 323 327 329 328 326 326 328 329 327 327 327 328 330 327 329 333 338 339 338 338 339 338 338 338 339 339 339
316 316 316 316 317 317 317 317 317 317 317 317 317 316 315 316 316 317 317 317 317 318 318 319 321 321 317 313 309 297 308 318 322 320 336 342 339 331 330 331 325 318 315 314 313 312 310 311 311 314 313 314 318 316 320 320 318 323 322 323 322 323 327 329 327 326 327 327 328 326 325 325 329 327 318 330 335 339 337 336 337 337 336 337 338 339 340 340
316 316 316 316 316 316 316 316 317 317 317 317 316 315 315 316 316 316 316 317 318 318 318 320 324 319 312 312 302 297 313 318 319 321 335 339 333 327 326 329 324 318 316 314 312 313 313 313 316 317 314 311 318 317 320 322 325 324 322 320 321 322 325 329 328 326 327 325 327 327 325 326 327 326 321 328 336 338 336 335 335 335 335 336 337 338 339 340
316 316 316 316 316 316 316 317 316 316 316 315 315 315 315 315 315 316 316 317 319 319 320 321 323 318 315 311 304 304 317 318 318 317 322 335 329 328 328 328 323 319 315 311 312 313 314 314 314 314 310 318 311 318 317 325 325 323 321 314 315 318 318 326 325 326 326 324 327 328 323 322 322 320 325 331 338 337 336 334 335 335 335 335 336 338 338 339
315 316 316 316 316 316 316 317 317 317 315 314 315 315 314 315 315 316 317 317 319 319 321 324 322 318 313 301 306 314 317 317 317 317 317 318 321 324 328 328 323 320 317 313 311 313 314 314 313 310 313 314 316 311 318 321 319 321 320 315 312 311 312 321 327 326 324 325 327 326 310 313 319 323 327 335 337 336 334 333 334 334 334 335 335 335 337 339
315 316 315 315 315 316 316 316 316 315 314 314 314 313 314 314 315 316 319 320 321 319 323 324 320 317 312 306 315 319 320 319 320 319 318 320 317 317 323 325 323 319 318 314 313 314 314 314 314 313 315 311 311 323 319 318 318 310 313 313 305 304 304 318 324 325 322 326 326 325 310 312 319 323 330 336 337 335 332 333 334 334 334 334 334 334 335 337
315 315 315 315 315 316 316 316 315 313 314 314 312 313 313 312 315 319 323 324 320 323 324 323 320 314 307 307 319 322 335 329 322 319 321 318 316 316 319 320 319 318 317 315 314 315 316 315 313 310 308 316 316 313 309 308 309 308 304 301 305 304 305 315 325 324 319 323 326 322 312 312 319 324 331 335 336 335 332 333 333 334 334 334 334 334 335 336
314 314 315 315 315 315 315 314 313 313 314 312 311 312 313 314 319 322 325 322 324 324 323 316 315 314 309 303 314 330 329 318 319 324 324 322 319 315 319 317 319 318 317 315 317 317 317 316 310 310 311 314 311 306 304 302 303 306 302 302 302 304 305 311 319 324 324 322 323 321 311 314 317 325 330 334 334 334 332 332 333 333 333 334 334 335 335 336
314 314 314 315 315 315 315 313 313 313 311 311 311 311 314 317 322 324 323 325 324 325 319 315 315 316 303 315 323 316 314 320 324 322 321 323 321 320 318 315 313 314 315 315 315 315 315 313 315 314 314 310 308 306 299 298 298 299 303 300 305 304 305 305 314 319 321 319 317 322 316 315 318 325 328 332 333 332 331 331 332 333 333 334 334 335 335 335
315 314 314 315 315 315 314 313 313 312 311 310 310 311 310 317 321 322 322 323 322 319 318 319 318 311 305 315 309 312 318 315 315 312 315 321 321 319 317 314 313 313 313 312 314 310 313 309 313 307 309 310 306 303 298 295 298 298 299 299 301 305 307 307 307 313 317 319 316 317 317 316 319 325 327 330 332 331 330 331 332 332 333 333 334 334 335 335
314 314 314 314 314 313 313 313 312 311 310 310 312 316 318 323 316 314 315 318 303 295 293 308 308 294 294 304 314 313 312 312 311 310 309 317 319 319 317 317 314 311 308 308 309 310 311 309 311 305 304 306 306 304 302 302 304 302 302 301 302 301 303 306 312 316 317 315 314 314 313 315 317 323 326 328 330 328 329 332 332 332 333 333 334 334 335 335
314 314 314 314 313 313 313 312 311 310 309 306 306 306 305 298 295 301 311 301 296 295 295 297 312 308 306 306 304 310 309 309 304 309 312 316 317 315 312 312 312 311 307 303 307 309 311 303 302 302 305 308 308 307 305 305 306 305 305 304 303 304 305 309 311 316 318 315 314 314 315 316 317 321 325 327 328 327 327 328 329 331 332 332 333 334 335 335
314 314 314 313 313 312 312 311 311 309 308 306 306 300 293 294 291 289 294 296 299 299 298 298 299 298 299 303 304 303 300 302 306 306 308 317 317 311 308 308 307 304 306 307 306 310 310 302 303 306 308 309 309 308 307 305 305 305 303 303 303 305 303 309 310 314 317 314 312 315 314 314 317 320 324 326 326 325 325 326 327 329 331 333 333 333 334 336
314 313 313 312 312 311 311 311 310 309 308 305 304 298 299 299 300 301 297 291 298 300 300 300 301 299 302 302 304 305 304 299 301 303 308 312 312 307 306 306 304 302 306 307 306 304 302 301 305 309 311 310 309 309 308 306 304 304 303 302 301 302 307 309 311 313 314 315 311 314 312 313 316 318 323 325 325 326 327 327 327 329 330 332 333 334 335 335
314 313 313 312 312 311 310 309 309 307 306 305 303 299 300 303 304 303 300 295 293 300 299 300 297 298 299 303 304 306 299 297 297 302 305 312 308 308 306 304 302 304 307 306 301 301 298 302 307 310 311 309 308 307 307 306 305 303 302 300 299 303 302 300 307 310 313 312 309 313 312 313 316 319 322 325 326 326 328 328 329 330 330 332 333 334 334 335
314 314 312 312 311 310 310 308 307 305 306 305 306 302 304 304 304 303 298 290 290 296 300 301 301 301 299 299 304 302 299 299 300 299 307 307 305 309 306 305 302 303 304 305 304 302 302 306 310 310 310 310 307 307 305 304 302 304 304 302 301 302 304 304 304 307 309 311 314 313 311 308 312 316 319 323 327 326 327 328 329 330 331 334 336 336 336 335
314 313 313 311 310 310 308 307 299 303 307 307 302 305 305 305 305 303 296 291 291 293 303 305 305 303 303 309 309 300 301 301 302 305 308 309 306 306 304 307 304 300 304 306 305 304 304 309 311 309 308 309 308 305 306 304 301 302 305 304 304 305 305 306 307 305 302 299 308 312 301 303 309 316 318 321 323 323 326 326 326 328 329 331 333 334 336 337
313 313 313 311 311 308 308 299 300 305 305 304 303 307 307 305 304 304 296 286 284 294 304 297 306 298 306 302 303 303 303 297 304 305 307 307 312 307 306 303 306 300 304 305 304 304 305 310 309 307 307 307 307 306 307 307 301 299 302 307 306 306 306 306 306 303 295 295 302 314 303 298 305 311 317 319 320 321 324 325 325 327 328 328 331 334 335 336
313 312 311 311 310 308 300 298 303 306 302 302 307 309 309 305 304 302 291 285 283 297 296 300 303 299 304 301 302 305 288 292 304 306 305 309 306 311 303 301 306 309 312 311 304 301 308 308 309 307 306 306 305 304 308 308 303 300 306 307 307 305 304 305 306 304 298 305 306 311 310 301 300 306 316 319 318 319 320 322 324 326 327 328 329 333 335 336
313 312 310 310 309 308 301 302 304 303 303 307 310 309 307 305 303 300 290 278 281 298 293 296 298 306 303 302 303 298 299 304 297 300 304 306 307 304 304 302 302 305 311 309 298 307 308 306 308 306 305 304 303 308 310 310 305 304 307 309 306 306 306 306 305 303 302 300 294 300 309 301 299 306 312 318 315 316 317 320 322 324 326 327 329 332 334 336
311 311 310 310 308 308 306 303 304 302 307 309 308 309 310 305 300 291 285 277 294 294 307 296 307 302 299 301 298 299 299 302 296 302 306 305 307 306 300 303 304 305 309 310 304 306 310 310 310 309 307 304 307 310 311 310 305 308 309 310 310 309 308 307 304 302 301 297 294 297 305 300 295 303 306 315 315 314 316 319 321 323 325 327 328 332 334 336
311 311 310 309 306 306 304 307 303 308 309 308 309 311 308 301 293 288 282 277 293 286 296 297 296 292 297 294 294 297 296 298 301 301 303 302 303 306 306 309 304 302 302 309 308 309 310 315 315 311 307 309 309 311 312 311 310 310 310 307 305 306 305 305 303 300 298 292 295 299 302 303 295 301 306 308 312 316 318 320 322 323 325 328 329 332 334 335
310 309 309 308 302 306 306 302 306 308 309 311 311 308 300 294 289 281 277 285 292 291 296 294 292 297 293 291 289 296 296 297 297 299 296 302 301 304 304 302 305 301 299 298 303 308 309 310 310 311 314 313 309 307 312 313 312 310 304 304 302 299 300 299 300 299 292 289 294 298 301 300 292 294 305 312 317 319 319 318 320 322 324 327 329 332 334 335
307 307 308 306 308 310 302 302 309 312 311 312 309 299 293 283 286 278 281 297 284 288 288 289 293 292 292 294 292 293 292 295 296 296 294 296 296 296 299 295 297 292 292 294 293 303 304 306 309 310 317 312 309 304 305 310 310 308 304 301 296 291 293 289 293 291 289 289 294 298 299 296 293 296 303 309 312 317 320 322 321 322 324 327 330 332 334 336
306 306 306 309 312 308 309 311 313 312 312 311 302 296 287 281 276 285 284 288 283 291 288 293 290 291 292 291 290 293 295 289 295 294 296 297 294 295 299 301 300 297 290 295 293 294 298 306 308 308 308 314 311 302 298 300 305 305 302 298 294 289 289 285 286 289 288 292 297 296 298 293 294 299 304 308 311 313 319 323 324 324 325 327 329 332 334 335
306 306 305 310 311 312 313 315 314 313 311 307 297 292 289 280 281 293 286 287 287 292 292 290 291 292 292 289 291 293 288 293 293 293 295 292 292 291 295 298 301 298 297 294 293 293 289 291 301 306 302 309 309 306 304 300 303 304 306 301 298 295 291 287 286 288 288 288 292 297 294 289 294 296 304 307 310 313 319 323 325 325 326 328 330 332 334 334
306 307 308 310 311 312 313 314 313 313 306 298 293 288 281 280 285 283 284 286 289 291 289 292 289 289 288 291 293 293 292 288 293 293 292 291 288 291 291 295 296 297 295 290 295 295 294 293 300 307 307 307 306 309 308 304 303 305 306 304 298 298 294 290 288 290 291 291 291 293 291 293 298 301 306 307 308 310 315 322 324 324 325 327 329 331 332 334
305 307 310 308 311 313 314 313 305 304 299 294 288 284 282 286 282 288 286 292 290 287 288 289 289 286 286 288 292 291 295 290 292 292 290 291 292 291 295 296 295 297 293 289 292 289 293 292 302 304 308 306 306 309 308 307 296 301 303 298 300 302 300 296 298 297 296 291 291 293 297 296 297 300 302 303 305 306 309 318 323 324 325 327 328 330 332 333
302 306 305 309 310 312 313 313 310 301 297 292 287 282 287 290 291 290 293 289 289 290 287 281 284 284 283 284 286 289 291 293 291 290 285 292 289 294 294 296 298 296 296 294 291 298 290 291 300 301 301 307 310 308 309 309 303 301 299 302 303 305 303 298 287 292 290 285 288 293 293 290 294 291 301 301 301 304 305 315 323 324 325 326 328 331 332 333
301 304 307 310 310 310 311 310 307 300 296 292 286 293 294 287 294 291 292 291 291 291 285 283 285 289 283 283 285 288 291 288 288 289 286 290 286 297 295 293 298 296 297 298 292 295 296 289 296 302 302 306 309 308 305 308 309 304 304 306 302 292 295 294 294 287 285 286 285 290 293 293 293 293 297 300 301 302 304 307 321 323 325 326 328 331 332 334
303 302 301 306 309 311 309 308 304 299 292 288 286 288 293 290 297 292 293 293 293 289 284 287 284 288 286 283 286 289 290 285 289 286 285 288 284 294 295 295 293 296 298 297 293 295 297 290 294 302 302 303 305 304 296 301 307 308 306 305 304 299 297 292 294 291 291 286 289 287 292 291 298 295 299 300 302 303 304 304 314 323 325 327 328 331 332 332
300 298 297 308 309 310 309 306 298 293 289 285 286 289 291 291 293 295 293 293 290 288 288 286 288 284 286 286 288 285 289 289 288 288 287 289 287 296 295 298 293 294 296 298 294 297 293 298 288 297 303 302 297 300 299 301 299 300 300 299 302 301 300 299 298 294 290 287 285 286 287 291 297 303 304 304 304 304 304 305 307 322 326 328 329 330 332 332
301 297 298 306 308 309 307 300 293 290 288 290 292 291 292 291 294 294 295 295 292 295 290 288 287 284 286 285 285 289 287 288 289 287 288 288 290 286 296 296 295 293 296 294 294 295 292 293 288 293 294 295 297 303 305 304 304 302 300 298 301 297 293 294 290 298 295 291 285 287 288 293 302 308 307 306 306 306 306 306 306 321 326 328 329 330 332 332
296 289 294 306 308 307 300 291 292 294 290 288 288 291 291 300 293 293 295 295 294 290 295 291 290 289 288 287 287 287 287 287 288 288 289 288 292 291 294 299 296 296 293 289 291 296 296 294 292 289 293 296 301 305 307 308 307 305 303 299 303 300 297 294 288 291 295 293 300 295 289 294 303 308 308 308 308 308 308 307 306 320 326 328 329 330 332 333
294 292 303 307 307 304 296 289 294 292 289 293 297 295 296 294 293 294 293 295 292 294 291 291 290 289 291 289 288 287 289 287 289 287 290 291 290 294 298 298 298 296 295 292 294 296 304 294 288 290 295 299 304 308 308 307 307 304 304 303 301 300 300 298 295 293 293 294 292 291 291 292 302 309 308 308 309 309 309 308 307 320 326 328 328 329 330 332
294 295 298 306 307 303 294 286 286 288 291 294 294 293 297 295 293 292 292 293 292 291 290 290 292 293 290 292 289 287 291 284 291 289 288 292 290 298 297 297 298 294 293 292 290 297 289 292 288 284 287 293 297 301 301 305 305 303 302 303 303 303 302 299 299 297 294 294 294 289 286 294 300 309 309 309 310 309 308 308 311 320 325 327 327 328 330 331
295 298 299 300 305 300 291 292 290 288 289 290 291 290 292 293 296 295 293 293 295 292 291 290 293 292 291 293 290 290 291 289 286 291 292 292 291 297 297 297 298 295 297 299 303 300 293 291 288 281 281 284 286 286 288 294 297 301 304 304 303 302 300 298 294 294 289 294 296 291 290 297 301 306 305 306 306 307 307 309 314 321 324 326 327 328 329 330
293 285 293 295 298 296 295 297 294 290 289 289 288 291 292 290 294 296 295 294 295 294 292 295 292 292 291 290 288 288 287 292 288 288 289 289 292 295 297 297 297 296 300 303 303 299 292 292 290 288 286 286 289 293 299 300 300 298 301 303 303 302 302 301 297 292 291 291 295 294 297 297 300 303 304 305 306 305 305 308 313 319 323 326 327 328 329 329
295 287 289 287 293 293 291 293 291 291 288 292 286 291 289 290 292 293 297 291 295 293 293 293 294 289 289 288 287 287 288 288 291 290 289 290 292 294 297 297 297 299 302 300 301 297 293 288 290 290 290 291 295 294 296 299 297 300 300 301 303 302 301 300 297 296 296 294 289 296 299 298 299 301 303 305 312 313 314 312 312 319 322 325 326 328 336 329
285 291 293 294 288 285 287 288 291 290 292 293 290 293 290 289 290 288 294 295 295 298 290 293 293 293 291 290 288 284 287 287 288 286 291 291 291 293 293 296 294 299 300 296 299 294 290 287 290 291 290 292 293 293 296 297 300 302 304 303 302 303 301 299 298 299 300 296 293 298 300 300 300 304 305 306 309 315 317 318 314 319 323 324 325 327 328 328
295 295 294 297 289 291 290 291 292 292 290 292 292 292 289 290 289 291 290 291 292 290 294 285 289 290 290 291 289 285 286 282 284 289 288 288 289 290 289 292 296 298 296 294 295 296 292 287 291 292 289 290 292 295 300 301 303 304 303 302 303 303 302 301 301 302 302 300 300 301 301 302 304 304 308 310 312 317 317 320 320 318 321 324 324 325 327 328
291 291 291 297 295 292 292 292 292 290 287 293 290 290 291 289 288 290 292 290 287 289 294 289 289 290 290 290 289 286 288 289 288 285 290 289 289 292 289 291 291 295 296 292 292 295 291 287 294 291 288 288 293 299 300 299 303 301 302 303 303 303 303 303 302 302 305 304 302 304 303 302 307 310 310 311 311 314 316 319 320 319 321 323 323 324 326 327
301 304 301 293 289 291 293 292 289 289 287 290 290 291 292 291 290 290 290 293 290 289 291 289 291 290 291 290 290 289 292 291 291 291 292 291 286 292 291 292 294 289 292 291 292 292 292 288 292 290 285 286 294 295 297 299 301 300 300 302 302 301 300 300 301 302 302 302 304 304 301 302 308 311 311 310 311 310 310 314 316 319 320 323 322 323 325 327
304 307 304 297 288 293 289 291 290 288 285 291 291 292 291 291 293 294 289 293 293 294 294 293 292 290 288 289 288 290 293 293 293 294 294 294 295 294 295 295 295 291 290 290 293 289 290 289 287 287 283 284 291 294 295 296 297 296 297 301 306 310 309 310 311 314 312 310 304 300 299 306 307 312 315 318 323 324 323 318 317 319 320 321 321 322 325 327
Wind_Speed
22 22 23 22 21 20 21 21 22 21 21 20 21 21 21 20 20 20 20 20 20 20 20 19 18 17 16 16 15 14 11 8 8 5 5 22 11 22 10 10 8 21 18 2 1 10 6 7 9 7 6 6 5 7 8 9 8 3 5 4 6 5 3 4 2 5 9 8 6 7 8 9 6 13 12 11 12 12 13 8 7 9 10 12 17 18 21 20
21 21 20 20 20 20 21 22 22 21 21 22 21 22 21 21 21 20 20 20 20 19 19 18 18 16 15 14 14 13 9 7 11 11 20 11 18 19 21 14 5 11 14 7 8 11 9 9 9 9 8 6 5 8 7 6 9 8 3 4 9 3 7 3 3 4 7 5 9 9 7 8 9 11 8 11 14 14 10 11 13 13 14 17 19 21 21 21
22 23 24 23 23 23 22 22 21 21 22 21 22 20 21 21 20 20 20 19 19 18 18 18 18 17 14 13 11 10 6 5 6 14 22 29 24 23 22 20 12 14 16 13 11 11 12 13 9 9 7 5 6 8 8 6 6 7 5 7 9 7 6 4 4 6 5 11 9 7 9 13 12 9 11 10 14 14 14 13 15 16 19 20 21 21 20 20
24 24 24 25 25 26 24 23 23 24 21 21 22 20 20 20 21 20 20 19 18 17 17 16 16 15 13 11 9 5 4 5 5 9 8 11 20 27 24 22 20 14 8 8 10 10 7 5 6 9 5 7 6 7 6 8 5 4 7 7 8 9 6 8 7 6 8 10 11 10 10 13 10 8 9 12 12 12 12 16 20 22 22 22 23 22 21 19
26 26 26 25 24 25 24 24 24 23 23 23 20 21 22 20 21 21 19 18 17 16 16 15 14 13 11 9 6 1 1 4 5 5 7 6 12 23 25 22 21 14 11 5 6 5 7 8 9 8 5 7 6 5 11 8 10 2 12 12 12 2 5 9 5 8 5 5 6 6 11 11 7 5 8 15 12 10 14 16 17 23 24 23 24 23 21 20
25 25 25 25 25 25 26 26 24 24 23 22 20 20 19 20 20 20 20 18 17 15 14 14 12 10 8 6 3 3 0 2 2 6 4 10 6 20 23 21 21 15 11 8 10 8 8 5 8 9 6 4 8 9 8 12 10 9 6 12 14 11 7 3 6 9 8 3 5 4 3 2 10 4 8 15 10 6 14 18 21 23 24 24 23 23 21 21
25 25 25 25 25 26 26 25 24 24 23 23 24 21 21 20 19 17 18 17 16 14 13 12 9 7 6 5 2 2 1 10 7 9 1 11 3 18 23 21 18 14 12 10 8 8 10 9 8 9 7 7 8 11 11 9 12 10 9 8 12 12 12 6 8 9 9 10 6 2 1 2 14 7 3 8 4 11 14 21 21 21 20 21 22 22 22 22
25 26 26 26 27 26 26 26 25 25 25 23 23 22 21 21 19 18 17 17 15 15 12 10 6 3 6 3 1 1 1 11 17 13 15 6 9 15 21 15 15 13 13 14 14 12 12 11 11 7 8 10 4 10 9 12 11 12 13 12 10 9 12 10 7 8 7 7 6 8 8 8 13 8 6 9 8 13 17 20 21 20 21 20 21 21 18 19
25 26 26 27 27 27 27 27 27 26 25 26 24 23 23 21 19 17 16 16 16 14 12 7 4 1 2 1 2 4 9 10 6 6 2 8 13 14 18 11 12 15 13 10 11 11 10 11 10 10 7 11 9 11 11 8 9 12 14 12 12 9 12 12 8 8 11 8 9 13 6 6 12 8 10 10 10 16 19 20 21 22 21 20 21 20 18 18
25 25 26 26 27 28 28 28 27 26 27 25 25 24 23 22 18 16 17 17 16 12 10 7 5 5 3 1 2 1 8 6 2 5 6 10 14 17 15 16 16 12 10 11 7 9 12 8 14 11 8 7 8 11 9 11 7 5 13 15 13 13 9 12 12 9 11 7 9 10 9 11 9 10 4 8 12 19 20 20 21 22 22 20 19 18 17 19
26 26 26 26 27 28 28 27 27 27 26 25 25 24 24 22 20 18 16 17 15 12 6 4 6 4 3 3 4 9 6 2 4 9 6 12 14 15 12 13 18 13 13 10 12 14 13 8 9 5 6 6 6 11 11 9 9 11 11 8 13 14 11 9 11 12 9 6 9 11 8 3 7 4 7 13 16 21 21 20 20 20 19 19 20 19 16 16
26 27 26 27 28 28 28 27 28 27 26 26 25 24 23 24 21 17 15 15 14 9 6 9 10 4 1 2 6 11 2 1 4 6 6 2 9 14 16 15 17 17 14 13 13 12 11 13 9 6 5 6 9 3 8 12 11 11 9 10 11 10 11 10 13 11 11 7 11 9 8 6 6 7 7 15 19 20 22 21 20 19 17 17 19 17 15 16
27 27 27 28 29 29 28 28 28 28 26 25 25 23 24 25 22 14 15 14 6 3 8 9 8 3 3 2 13 17 14 14 12 13 13 4 6 4 6 15 18 16 17 14 14 13 12 12 8 6 12 5 2 7 2 2 6 8 10 9 9 8 10 11 13 13 13 6 14 10 2 6 9 6 12 16 18 19 20 19 18 16 16 15 16 15 16 15
27 27 28 28 28 29 28 28 29 28 26 26 24 27 24 23 21 14 13 11 7 7 8 8 6 5 3 9 6 4 9 8 8 10 11 4 4 5 6 8 13 12 11 11 12 9 12 9 6 9 6 7 6 3 11 8 4 6 5 3 6 5 6 8 11 13 14 9 13 12 5 7 7 10 14 18 20 21 19 19 18 17 16 16 15 14 15 14
26 27 28 27 28 28 28 27 26 28 27 24 27 24 23 29 19 11 11 4 5 8 9 7 3 5 3 11 8 17 24 13 12 15 10 4 6 2 9 8 10 10 12 12 5 6 8 7 5 7 7 7 10 13 9 4 2 2 3 7 3 7 5 6 14 15 15 5 10 12 6 6 11 13 18 18 20 21 19 19 19 18 16 17 15 16 15 13
26 26 28 28 27 28 27 27 28 26 25 27 27 28 24 25 15 12 3 7 9 13 8 5 4 3 2 11 6 11 2 3 6 13 12 8 7 8 11 13 12 10 8 8 7 4 6 6 8 6 8 9 10 7 6 4 6 4 6 3 6 6 6 3 9 14 18 9 10 15 5 6 9 15 18 19 21 20 19 19 18 20 19 18 15 15 15 13
27 27 28 28 27 27 28 28 27 25 27 27 27 25 23 22 11 5 10 10 6 6 5 3 5 4 2 5 9 5 1 2 4 0 4 11 11 9 7 10 7 11 10 8 9 6 7 7 3 6 8 9 7 4 5 7 7 6 2 6 5 5 5 7 1 6 11 10 9 14 8 7 11 15 18 19 21 19 18 19 19 19 17 17 15 16 15 14
27 27 27 26 28 28 28 29 27 27 25 27 25 19 17 22 6 8 6 2 3 3 4 4 2 2 10 3 4 5 6 7 7 9 9 6 15 12 7 10 8 13 11 7 6 9 7 6 6 7 5 9 9 9 10 14 10 7 3 4 6 4 5 7 7 5 7 11 10 12 13 7 17 23 21 20 22 21 20 19 20 19 17 17 15 16 17 15
27 27 24 26 26 28 27 26 28 26 23 25 19 17 12 4 2 1 1 1 3 2 2 1 2 3 5 4 5 9 7 10 14 11 7 4 7 12 8 7 9 13 8 9 5 12 6 4 4 6 12 13 15 13 12 5 2 6 5 4 4 6 7 7 11 8 10 9 13 10 14 12 13 25 22 19 20 20 19 18 18 18 17 17 16 16 16 16
26 24 24 23 26 24 26 27 27 25 21 13 11 7 4 10 5 1 2 10 9 12 17 15 9 13 19 21 19 11 15 11 8 6 6 5 7 10 9 6 7 10 10 11 8 14 5 9 12 16 16 13 11 11 7 4 5 4 4 7 9 8 8 8 10 9 7 7 13 13 12 13 13 25 24 22 20 18 18 19 18 17 17 17 17 18 18 18
23 23 23 25 25 25 24 25 26 23 19 3 5 7 9 11 14 12 17 13 18 7 13 18 17 17 17 14 13 11 14 13 5 11 10 7 7 5 7 7 7 12 12 11 7 3 7 10 15 18 9 9 10 9 6 5 5 10 8 7 9 9 9 11 14 9 7 7 9 13 11 13 14 18 23 23 21 20 20 20 19 20 18 18 20 19 20 18
25 26 26 26 26 27 28 26 26 22 11 2 4 7 3 6 2 7 6 13 26 9 12 18 12 15 13 17 17 9 9 11 23 19 10 4 5 11 6 10 10 13 10 9 7 6 11 16 21 13 7 5 7 11 11 11 10 8 10 9 8 9 9 9 13 11 7 11 9 14 14 13 15 15 21 24 24 21 22 23 23 22 20 18 19 20 19 15
25 27 28 28 27 29 29 26 26 20 5 7 5 6 6 7 4 4 3 9 14 12 9 2 3 12 12 9 10 4 8 10 11 14 5 1 5 13 7 11 11 9 11 13 14 10 9 19 19 8 8 8 8 11 13 13 11 10 9 10 11 9 6 9 11 9 9 8 7 13 17 13 10 12 22 26 23 20 23 24 22 22 23 23 23 21 19 19
23 24 28 26 25 27 29 26 20 8 10 10 5 6 8 5 6 5 7 4 6 12 1 2 2 0 3 3 0 7 10 7 7 16 10 4 4 9 8 13 11 10 14 17 17 15 17 1 7 9 11 13 12 11 12 12 12 13 13 11 10 12 13 11 10 2 3 8 9 12 12 7 6 12 14 22 25 21 21 22 21 20 22 23 22 21 21 22
24 26 26 28 25 26 30 21 4 7 8 7 2 6 7 7 8 4 7 4 1 8 3 1 2 2 5 3 1 4 4 5 12 11 4 2 4 5 11 4 7 14 11 15 15 15 15 10 12 16 15 13 13 12 15 12 12 13 16 16 13 12 14 13 12 5 5 7 7 14 5 8 7 18 20 15 13 17 19 20 20 20 19 16 18 20 20 21
25 25 25 28 26 24 25 4 4 7 9 3 5 10 8 9 6 3 1 2 7 6 2 7 1 6 2 8 14 4 2 6 7 13 12 7 5 4 3 9 6 12 12 12 15 9 11 10 7 15 15 15 15 14 13 13 10 10 16 17 17 16 15 12 8 3 7 7 7 12 13 7 4 12 17 17 17 20 17 21 22 20 18 18 19 19 20 20
27 24 27 28 25 20 8 2 3 8 6 4 9 12 11 10 6 4 2 1 1 5 4 6 4 3 7 14 16 2 5 7 6 11 10 11 9 4 8 10 5 5 6 4 3 12 10 12 13 11 15 17 14 15 14 16 11 13 7 12 14 16 18 16 10 7 6 3 5 6 11 8 8 10 18 22 21 22 21 21 21 20 20 21 20 20 20 21
28 28 28 28 27 16 4 3 7 7 6 9 10 9 11 11 6 2 2 2 3 7 4 5 3 4 10 16 10 7 9 14 9 2 8 8 8 8 10 9 12 8 8 9 17 6 12 14 15 15 12 13 16 15 13 16 14 7 5 11 14 16 17 15 10 9 7 4 8 4 7 5 7 10 14 22 19 19 19 20 20 20 22 22 22 21 22 23
29 29 28 25 26 21 2 2 3 6 6 9 9 11 11 11 1 3 1 1 1 1 1 4 6 3 20 23 17 12 12 8 10 14 19 8 10 4 7 10 6 8 9 14 14 3 9 11 14 15 12 13 12 13 10 14 14 10 7 9 12 14 14 14 9 9 8 5 10 7 5 8 3 6 9 17 20 20 20 22 22 21 22 21 20 20 22 20
28 25 25 22 17 3 2 2 5 8 7 7 10 13 13 3 2 2 2 2 4 6 10 4 8 16 15 17 18 14 17 13 7 14 14 11 5 8 6 3 7 7 10 12 15 11 5 8 14 13 16 10 7 11 13 13 14 4 11 9 8 10 12 9 7 7 4 8 12 10 8 8 7 7 13 14 15 20 19 16 16 18 19 21 22 22 20 19
31 29 27 17 2 3 4 7 10 7 8 10 12 13 8 4 2 2 1 2 3 3 5 7 13 15 17 16 14 16 12 10 15 17 16 17 14 5 4 9 5 8 8 7 9 13 13 9 9 10 15 10 7 9 13 14 14 12 6 10 7 8 3 3 4 3 7 7 8 7 11 7 8 4 7 15 21 25 23 22 21 20 21 20 20 20 22 21
31 30 28 13 5 1 1 7 11 9 10 10 11 8 5 4 2 5 4 6 5 7 7 13 11 10 14 12 4 12 15 13 12 14 14 11 12 11 8 7 5 8 11 11 9 2 12 16 10 6 13 19 14 10 9 15 15 13 8 7 10 3 3 7 3 8 8 7 7 7 8 3 7 6 5 9 12 18 22 22 23 23 23 22 21 21 20 19
31 30 27 6 6 2 6 11 10 10 8 9 7 3 3 3 1 1 3 6 1 7 6 7 13 16 13 10 9 14 8 9 14 11 15 11 13 11 17 10 4 7 10 10 7 4 8 12 15 14 7 14 13 14 7 10 12 13 12 9 9 7 7 6 5 0 2 4 7 6 5 6 3 7 10 9 12 10 16 20 23 25 25 24 21 19 19 19
31 27 11 7 7 9 10 8 9 8 6 5 4 6 2 4 1 4 2 1 3 4 7 10 13 9 10 10 13 16 9 7 16 14 13 11 11 14 13 24 20 8 7 2 9 7 9 8 15 16 12 7 14 13 11 5 11 13 11 11 10 7 6 9 5 11 9 8 7 4 4 6 8 6 5 12 10 12 15 19 23 27 26 25 24 22 21 20
32 15 7 9 4 5 8 9 8 4 0 6 6 2 2 1 1 2 2 2 2 5 6 8 8 9 7 8 11 10 12 8 14 16 11 13 12 7 14 8 21 22 16 6 2 3 12 10 4 12 5 8 12 13 11 9 8 12 12 7 7 14 6 3 5 1 2 2 4 4 6 6 8 3 5 5 7 7 13 20 19 20 18 19 17 19 18 18
18 13 9 2 6 9 10 8 5 1 5 7 5 3 1 1 0 1 1 2 2 5 8 6 3 6 6 6 8 10 11 8 12 12 7 13 11 4 10 9 13 19 13 5 6 3 3 12 9 5 15 13 12 11 12 12 11 9 10 14 13 7 7 1 2 2 4 2 11 2 2 3 5 5 6 5 4 5 7 15 18 18 19 18 18 18 19 19
14 12 8 7 7 13 13 12 10 3 4 4 2 2 3 1 0 2 2 3 4 2 3 8 5 6 7 9 10 13 13 8 9 11 9 12 3 11 12 8 14 17 17 11 9 3 7 11 12 9 13 17 18 10 13 15 6 7 13 12 5 4 4 6 6 1 4 6 5 2 11 2 4 9 4 7 6 9 5 13 20 22 21 19 18 19 20 20
10 8 5 4 10 14 13 13 7 2 1 2 1 4 3 2 1 2 2 1 2 1 2 2 2 6 5 7 7 12 12 9 12 10 10 5 6 11 12 8 7 16 17 17 4 7 9 7 8 11 12 12 16 16 11 14 15 13 14 10 12 7 13 4 3 5 5 5 1 3 4 6 8 7 2 8 10 10 10 9 18 20 20 21 20 22 21 21
8 4 4 8 18 16 15 16 4 0 1 1 2 3 2 1 0 6 4 6 1 3 3 2 3 2 5 4 7 8 10 8 10 10 9 5 7 10 9 11 10 18 16 18 9 9 8 5 7 7 7 6 9 12 15 13 15 13 7 12 8 6 8 7 8 4 6 2 4 6 1 8 5 4 8 11 12 15 14 8 16 21 22 20 19 19 20 20
9 7 4 8 17 17 18 10 1 3 2 1 2 2 1 4 6 5 6 6 2 3 1 3 3 4 4 3 7 8 8 8 7 6 7 7 11 11 6 13 14 20 19 12 8 10 7 4 5 8 11 14 6 8 14 16 12 11 9 9 10 4 2 5 1 5 5 4 5 4 6 6 7 9 14 16 15 13 14 15 11 19 22 23 23 21 20 20
5 2 4 10 17 17 14 5 8 7 5 3 1 2 3 3 3 8 8 10 1 4 5 5 5 4 2 4 4 9 6 7 5 3 6 9 6 8 6 17 15 20 20 12 6 11 7 6 9 13 11 6 9 7 14 15 13 9 9 9 11 9 7 14 8 1 4 3 3 5 8 6 11 9 13 18 16 14 16 16 10 19 22 25 22 23 22 21
6 7 5 15 15 20 9 8 4 2 2 8 10 8 7 8 3 8 6 7 5 3 3 3 4 3 4 4 4 5 7 7 6 4 2 6 7 8 12 19 15 15 13 12 11 8 6 7 6 10 7 10 15 20 12 13 14 10 10 9 12 7 7 8 9 8 7 6 4 5 2 8 9 8 13 14 14 15 16 15 11 17 22 24 24 24 22 22
4 6 15 13 14 15 4 5 4 6 5 7 11 10 10 8 5 6 10 9 6 3 3 3 6 5 2 3 4 5 7 7 4 3 4 7 10 10 12 16 16 16 13 9 12 4 16 3 9 10 10 14 19 15 13 12 13 13 9 7 10 13 12 12 9 6 8 5 7 2 4 8 10 4 8 11 15 18 16 16 13 17 20 22 23 22 22 19
5 6 7 6 15 11 11 9 8 8 7 10 10 8 9 10 10 9 8 11 6 4 3 2 2 3 2 2 3 5 8 7 3 2 3 5 7 8 14 13 17 12 10 7 9 10 9 2 7 10 9 8 8 5 6 4 9 10 10 11 12 13 12 3 6 4 7 10 9 5 6 9 7 4 6 7 14 16 15 10 14 18 19 21 21 20 19 20
5 4 5 7 9 9 10 6 6 6 9 10 9 11 14 9 9 10 9 8 8 3 3 1 1 2 2 2 4 3 4 6 6 1 3 7 8 7 8 12 15 13 9 13 16 11 7 7 4 5 5 4 9 8 4 4 4 5 11 15 14 15 14 8 7 3 8 5 7 5 5 12 10 9 9 6 8 11 12 11 14 20 21 21 19 19 20 19
2 4 5 6 6 4 6 5 5 6 6 9 10 8 11 10 10 7 10 7 8 10 2 2 1 4 2 6 5 5 8 1 1 4 4 5 6 3 6 13 12 11 15 16 11 6 4 5 5 7 8 11 11 12 14 9 10 7 10 18 16 13 14 10 6 6 10 4 8 8 8 11 5 7 8 9 2 9 7 8 12 15 18 20 18 19 18 18
2 2 5 7 6 3 7 5 8 7 6 7 3 6 10 11 9 7 6 2 4 5 4 1 1 3 1 3 4 7 4 8 6 6 6 8 6 8 9 12 11 13 11 7 11 7 2 6 10 9 14 17 18 20 24 18 17 20 18 16 16 15 12 15 10 10 5 9 8 6 10 10 7 6 7 6 2 4 7 9 12 15 18 19 20 19 20 17
3 1 2 1 1 5 12 10 11 10 10 8 4 4 6 9 10 8 10 6 12 1 1 1 2 1 3 3 4 3 4 6 8 8 4 4 8 7 9 7 11 5 13 7 9 4 5 5 10 9 16 20 22 22 21 16 15 16 17 18 20 17 15 15 11 5 9 8 9 8 9 6 6 7 7 6 3 4 11 13 16 20 18 18 18 20 20 20
1 1 1 3 3 4 4 10 13 10 10 8 4 5 8 9 9 7 4 8 9 6 0 4 3 8 8 5 1 3 3 5 7 6 4 8 9 8 5 7 4 9 10 9 7 4 5 6 8 11 20 22 21 18 14 12 10 12 12 9 19 17 17 15 9 5 11 6 10 10 8 14 7 4 2 4 2 0 2 3 6 10 18 19 20 21 21 20
1 1 2 1 3 5 7 7 7 8 7 8 4 3 6 8 9 11 8 6 7 9 9 10 10 11 9 9 2 3 5 4 6 11 7 7 10 3 2 1 7 7 7 9 8 4 4 6 13 13 13 16 16 12 12 12 10 13 5 8 14 19 16 13 9 8 6 3 5 6 6 3 4 2 0 4 4 0 2 7 10 14 15 19 19 20 20 19
2 0 1 4 5 3 4 4 5 5 5 2 1 5 7 5 7 3 7 6 6 8 10 12 12 10 7 6 4 6 5 6 9 12 13 11 11 5 3 2 2 10 11 7 5 7 6 6 7 8 9 12 8 14 18 15 16 3 19 20 8 7 9 5 6 3 4 4 4 7 5 1 1 0 7 6 10 9 5 4 6 8 11 17 20 19 18 18
1 1 2 1 3 3 4 3 4 4 2 2 7 9 8 8 10 5 7 3 4 8 11 11 11 8 6 4 7 6 5 9 12 13 13 12 11 10 8 8 7 7 4 3 7 9 4 5 7 7 10 8 13 15 16 16 10 9 16 15 15 7 14 16 19 16 13 6 5 7 5 6 7 2 15 10 14 12 12 9 5 7 6 7 10 12 13 12
Wind_Direction
350 348 347 344 340 336 334 334 334 331 328 325 324 325 327 324 322 318 316 314 311 311 310 311 314 314 315 312 311 313 316 314 302 280 208 242 174 210 189 207 210 208 208 173 241 134 171 191 200 195 196 169 205 220 222 224 229 144 195 197 249 220 238 229 195 192 151 162 208 184 186 176 195 173 204 152 150 144 156 127 131 95 107 130 132 137 143 147
346 345 342 339 335 334 333 334 332 328 328 326 324 327 323 324 321 318 315 314 312 310 310 310 315 315 314 313 311 312 319 296 282 260 230 224 163 190 216 218 194 178 161 176 195 173 158 195 204 179 183 202 177 220 181 228 205 211 196 175 242 182 231 183 193 164 140 179 177 198 172 172 220 180 178 156 160 157 133 130 123 116 115 124 135 143 149 153
346 344 342 338 338 334 331 330 328 329 326 321 327 325 324 322 320 316 311 311 312 311 310 311 316 315 314 313 310 308 315 298 269 259 254 243 213 189 199 208 193 155 158 175 196 177 175 188 181 176 193 206 204 217 194 224 209 216 196 219 235 219 238 233 204 199 133 145 162 174 190 196 214 197 164 162 162 159 148 141 138 132 135 143 145 150 151 157
346 344 341 340 338 335 330 329 327 327 323 322 326 322 321 316 314 314 311 311 312 311 311 311 314 316 314 313 308 301 283 255 263 245 248 266 190 199 186 194 190 168 172 177 176 187 191 153 176 181 173 214 210 232 211 218 214 187 214 216 231 223 235 256 214 184 149 163 160 187 188 199 212 208 181 153 164 173 151 161 152 148 147 150 152 154 156 159
345 343 342 339 335 332 329 328 326 324 323 325 320 324 327 319 315 312 316 311 309 310 309 313 316 315 316 300 293 308 258 357 262 209 261 305 186 188 184 183 180 175 175 160 161 207 197 180 175 193 203 202 226 205 236 223 215 256 217 226 233 168 211 244 193 170 169 164 141 142 159 208 203 214 195 168 175 180 162 164 150 146 150 152 156 158 161 159
344 342 340 335 332 330 331 326 324 321 321 321 319 322 316 313 315 315 310 309 309 308 306 314 317 314 309 305 296 287 235 285 308 283 6 337 190 173 176 171 172 168 167 163 173 184 189 218 184 184 204 206 204 215 216 224 203 236 252 232 228 224 229 221 182 170 164 142 165 164 206 178 179 216 191 178 186 165 153 152 148 152 156 155 154 157 163 159
341 339 337 334 333 332 327 325 322 323 319 319 323 319 319 316 312 307 305 305 303 303 306 317 315 313 309 315 289 264 220 274 316 251 130 33 52 159 164 164 160 159 168 163 182 171 199 197 195 199 198 214 226 223 239 213 219 233 244 240 238 224 227 213 196 170 173 171 183 119 18 233 168 178 172 179 180 150 136 144 150 150 147 150 155 165 165 161
340 338 335 335 333 328 328 326 324 323 319 319 320 321 318 314 313 309 305 302 303 302 308 311 312 308 305 303 191 258 175 251 247 261 277 299 95 143 152 153 156 158 171 181 173 188 180 199 197 199 220 197 195 213 219 235 230 226 241 241 249 222 222 216 199 183 169 194 162 144 203 205 175 176 156 184 163 144 137 140 145 149 152 156 160 165 161 159
340 337 336 335 331 329 327 327 325 322 321 325 321 320 317 314 309 305 304 301 301 299 299 301 279 353 173 250 243 296 248 235 260 251 333 102 121 135 142 148 163 167 179 179 187 184 168 205 205 205 204 210 218 228 229 219 237 232 237 238 245 234 215 211 196 183 181 195 157 188 177 209 206 146 171 174 153 139 138 141 148 152 157 160 164 166 163 160
339 338 336 332 330 329 328 326 323 324 323 321 322 318 317 311 307 308 308 300 296 293 289 270 230 212 183 242 235 226 263 218 274 251 161 127 134 143 165 154 165 168 166 194 179 186 195 190 199 202 247 247 223 223 232 223 243 206 232 240 242 241 214 196 190 193 190 206 179 191 182 198 189 146 206 163 145 136 141 146 151 156 161 164 165 168 169 165
339 338 336 334 331 330 326 324 325 324 321 322 319 316 312 310 307 306 303 298 292 290 279 206 188 156 184 204 176 222 250 100 38 47 81 131 141 152 173 168 166 170 182 178 194 199 202 207 195 204 219 240 209 236 228 234 238 251 256 260 244 247 222 197 194 194 178 216 197 185 180 162 191 181 179 157 147 144 145 152 157 160 161 164 167 169 171 172
339 337 336 333 332 328 326 326 326 325 324 320 318 316 312 309 308 308 298 294 296 287 240 208 171 188 269 230 231 228 249 21 37 34 52 145 166 182 174 171 173 176 173 177 204 204 208 215 211 215 212 171 240 328 260 238 243 250 247 257 265 258 241 190 195 198 179 203 176 158 105 183 191 222 178 152 149 150 151 156 160 163 162 164 166 169 174 176
339 336 335 334 330 329 326 326 325 325 323 321 319 316 313 309 306 312 299 292 302 225 186 177 161 198 175 259 233 248 289 288 311 324 310 210 258 253 207 176 180 179 181 177 193 205 208 218 208 232 253 276 217 202 241 237 227 241 241 242 268 264 255 208 195 192 187 203 150 134 207 217 193 180 160 151 151 150 152 158 161 163 165 170 173 170 174 178
337 335 334 333 330 327 327 325 326 325 322 322 320 318 313 307 306 313 290 269 243 193 169 172 160 168 180 246 275 244 259 267 294 292 264 269 205 229 209 205 191 188 189 191 199 194 207 218 208 237 272 256 267 297 259 267 252 239 262 214 221 237 252 212 192 184 198 180 159 146 197 229 169 167 150 153 153 156 160 162 163 165 169 173 177 179 180 175
335 334 332 330 329 327 324 324 325 325 321 322 323 314 310 312 310 307 292 257 147 161 164 152 195 148 202 266 272 265 254 262 271 253 248 236 189 183 203 180 199 199 195 202 197 195 209 204 203 236 252 244 253 270 275 276 299 265 258 246 245 197 263 243 192 182 196 191 172 154 208 202 162 167 158 159 160 160 162 166 165 168 171 174 176 180 185 181
336 334 331 329 327 326 324 324 326 325 322 322 322 316 307 305 321 321 13 114 132 150 142 128 197 217 301 286 259 315 275 130 239 229 222 219 222 212 186 187 190 198 190 214 213 213 213 182 206 217 244 263 250 232 251 290 267 231 212 270 245 193 224 277 208 185 194 189 183 177 197 147 179 170 165 163 164 164 164 169 170 172 172 174 173 176 184 180
335 335 331 326 328 327 326 325 325 327 325 321 321 315 313 300 342 32 112 122 128 140 177 144 157 193 278 231 320 300 280 229 238 294 158 199 211 233 181 181 185 196 199 204 201 211 217 203 193 224 226 236 229 185 215 245 251 260 169 210 239 213 198 225 278 233 201 173 190 198 192 192 146 173 170 168 168 167 169 172 173 174 173 175 173 177 181 181
333 332 329 325 327 327 324 325 324 327 327 322 320 305 305 297 314 122 59 80 139 182 223 299 184 231 265 351 270 263 338 314 344 326 293 196 191 215 221 187 189 187 183 206 207 201 197 209 195 234 231 219 210 203 195 218 208 217 215 238 258 251 214 214 213 210 211 206 198 198 214 198 159 167 177 176 173 170 175 173 175 176 174 173 176 180 182 183
331 328 325 325 325 327 322 323 325 326 328 320 309 309 306 275 126 245 110 164 304 2 17 122 187 148 246 276 276 300 325 322 305 292 286 181 187 194 217 210 189 168 184 191 193 198 172 217 193 230 225 214 213 209 217 208 164 202 201 220 237 224 231 225 229 222 193 201 215 191 206 205 161 169 173 179 175 175 176 175 175 176 176 176 177 181 183 186
327 324 325 325 328 325 323 325 324 326 333 336 346 344 328 3 21 347 315 308 255 237 247 255 216 261 290 288 289 302 315 289 277 267 276 252 187 178 196 199 191 185 177 199 177 203 151 201 206 213 218 213 216 218 216 212 233 257 228 223 246 243 249 246 243 230 185 190 209 209 211 201 164 171 174 179 178 176 173 174 177 177 177 178 181 184 185 187
324 326 327 331 330 328 324 327 322 325 333 306 300 12 27 1 352 341 330 295 268 234 250 248 230 241 249 276 283 323 343 324 296 295 275 296 231 153 194 178 192 195 198 190 189 164 191 217 229 224 213 207 208 211 213 236 230 233 249 242 240 237 245 232 239 225 189 197 217 213 215 212 190 179 171 173 174 179 177 176 176 177 176 179 182 184 187 190
330 331 333 336 335 332 328 330 324 323 322 185 12 31 15 10 289 256 324 316 312 316 220 248 247 248 250 254 266 283 283 278 299 287 283 197 219 190 184 193 190 204 183 179 188 180 205 219 228 211 200 196 191 200 212 221 234 237 234 244 252 245 253 268 252 237 209 202 216 202 211 215 211 168 171 174 177 181 180 179 180 175 176 179 183 185 185 182
328 332 336 336 339 333 328 326 324 317 325 11 359 1 4 314 314 310 293 266 268 297 295 295 223 244 260 267 270 247 258 240 263 281 264 331 196 208 173 197 200 199 190 185 191 187 203 232 226 189 192 205 205 196 200 215 231 231 237 235 234 242 231 256 256 248 226 212 206 197 205 216 206 166 170 177 181 181 183 183 179 176 177 180 183 182 181 182
329 328 332 334 338 333 322 325 311 328 358 332 285 3 308 311 325 349 350 277 296 320 213 267 184 166 273 274 120 183 216 245 224 265 265 207 239 191 213 202 200 205 206 191 197 203 210 332 159 188 200 207 212 202 197 202 218 229 231 234 238 238 235 229 253 298 312 256 226 192 203 221 181 165 180 182 180 179 184 183 182 183 182 182 180 180 180 180
330 330 329 332 339 335 320 322 32 342 320 311 316 323 325 317 335 50 346 297 286 262 225 28 340 105 317 184 190 248 206 262 233 260 276 259 211 184 219 191 202 218 210 195 200 218 235 230 156 184 204 206 213 209 208 196 212 222 233 230 233 238 247 244 251 275 281 293 250 184 189 220 190 175 176 180 181 183 181 180 186 188 185 176 179 184 185 185
331 329 331 331 337 339 318 14 348 337 323 303 312 320 316 317 320 24 352 38 317 272 260 14 242 358 288 348 335 187 253 266 213 233 236 243 276 252 171 230 199 216 212 195 205 218 230 209 199 184 194 208 210 220 209 199 211 209 223 225 229 241 251 252 262 221 245 236 275 193 181 215 216 180 181 178 177 185 185 188 188 186 184 182 186 185 184 184
331 330 335 334 335 348 9 328 324 317 344 315 320 319 315 317 320 10 63 298 331 334 11 330 318 42 337 337 332 348 15 319 301 242 230 227 235 245 233 210 209 227 197 196 184 223 198 206 208 208 196 201 210 216 210 200 204 226 203 216 231 239 246 250 257 242 244 251 290 236 192 175 200 203 187 179 181 184 186 193 189 187 184 187 188 185 184 184
332 335 336 337 329 342 190 290 335 334 266 269 299 310 307 308 315 47 86 43 311 324 18 343 36 286 347 328 338 21 324 322 322 3 222 232 183 261 255 207 212 201 197 190 225 178 189 204 201 209 212 203 211 214 197 200 210 222 171 198 227 233 244 252 248 256 250 294 280 301 224 202 200 198 186 181 183 186 191 193 195 189 187 188 188 186 186 185
331 333 334 334 328 311 178 191 293 272 267 297 305 316 318 301 53 99 125 129 100 337 70 252 302 26 344 345 354 352 351 354 342 334 321 236 204 178 227 236 211 218 229 214 231 155 210 207 196 213 215 218 214 212 204 195 217 218 213 200 216 230 239 239 237 243 255 239 259 243 211 231 280 214 167 184 182 188 196 198 196 190 188 190 187 187 187 185
326 329 328 336 329 358 348 259 218 241 278 297 314 319 310 325 40 32 37 263 15 341 9 341 360 343 349 349 335 352 354 348 4 333 344 340 235 196 252 301 227 232 239 232 230 226 243 190 191 201 220 220 200 214 206 205 218 185 207 240 234 229 231 235 224 216 235 233 244 228 222 217 235 231 177 175 192 187 195 198 197 193 188 189 190 185 184 183
327 329 326 338 325 298 309 321 282 290 312 319 333 324 325 30 98 106 86 282 1 10 331 26 354 352 357 360 328 336 351 348 5 3 349 350 346 242 200 243 236 237 248 257 245 224 227 252 204 202 207 219 192 207 205 209 209 203 197 214 244 273 296 272 235 154 216 239 251 207 220 206 236 285 226 193 189 189 181 187 192 192 192 191 192 189 184 183
328 327 324 334 241 283 165 275 285 316 311 327 335 339 22 32 11 87 241 358 271 344 18 334 6 348 333 334 306 357 346 343 15 359 353 349 330 330 221 218 191 214 233 226 247 232 230 226 229 227 201 206 206 220 210 203 204 205 204 198 203 239 199 246 187 222 209 204 248 198 195 267 242 216 208 213 212 200 188 184 186 188 192 194 191 186 184 185
329 325 319 301 218 194 235 248 284 292 315 328 335 359 60 94 42 313 307 356 265 3 343 358 347 344 333 336 14 1 357 348 356 356 347 347 350 338 346 277 220 217 226 223 240 196 246 232 225 235 230 207 204 205 188 206 203 197 201 194 188 200 208 229 249 252 235 257 235 175 194 228 238 269 218 202 204 201 199 191 186 187 192 191 190 186 184 186
327 323 327 293 267 236 256 265 269 287 328 336 10 355 100 69 276 53 355 67 281 355 346 358 339 336 1 2 7 14 348 66 3 352 1 343 353 355 347 7 333 254 246 163 211 202 236 227 222 212 223 180 207 212 194 186 189 202 200 191 201 195 187 210 187 209 209 202 255 184 173 220 170 241 216 205 209 186 180 198 194 193 190 188 188 185 184 184
320 304 290 303 306 258 230 249 269 280 48 13 7 40 64 235 222 347 328 322 330 353 357 356 334 354 3 9 6 33 39 327 0 351 6 360 351 340 7 343 19 17 6 6 12 233 229 246 255 216 250 165 215 209 192 167 192 204 200 180 183 219 125 181 206 144 166 159 257 215 200 183 184 237 232 214 220 218 177 185 198 199 193 188 185 184 184 183
326 340 331 303 339 312 324 315 302 92 67 42 45 359 311 180 204 338 323 304 327 358 344 357 347 6 356 1 352 4 23 341 353 359 355 359 318 355 17 16 22 26 18 22 283 337 292 247 215 218 216 220 213 195 207 170 203 189 190 206 210 129 158 133 311 237 109 116 241 169 312 301 304 332 268 273 284 233 167 178 182 190 193 183 185 187 185 185
341 338 353 337 346 345 334 318 311 350 70 82 66 287 255 342 218 80 350 11 318 360 15 6 360 2 1 357 334 1 3 358 8 355 350 333 334 16 10 37 27 16 21 355 316 289 340 286 298 264 220 218 219 212 207 201 150 156 201 207 126 131 116 178 203 285 174 183 251 263 235 288 166 248 277 233 227 260 191 176 183 186 186 183 187 186 188 186
322 306 272 257 345 343 331 314 307 342 92 83 232 270 267 290 2 132 220 349 335 360 30 75 306 37 6 346 345 7 4 15 350 17 329 4 312 17 20 355 26 14 358 357 283 349 343 306 282 253 251 224 209 213 236 223 193 193 204 136 175 152 210 197 137 216 192 210 252 283 234 246 187 239 244 225 231 230 237 178 185 185 184 186 185 188 189 187
311 292 327 20 355 341 334 318 322 139 89 52 224 339 294 246 360 348 10 19 63 336 61 354 10 45 360 330 352 0 15 4 8 351 339 16 341 357 22 7 329 353 359 354 343 331 317 282 303 272 255 286 223 193 214 221 217 207 125 181 164 155 198 160 198 157 136 232 183 285 187 238 218 202 202 222 214 222 231 199 182 183 183 183 186 188 189 187
360 1 304 1 347 341 332 308 39 55 74 267 212 210 258 16 337 355 25 43 38 28 96 1 33 337 5 346 5 360 2 4 5 327 339 325 307 329 356 24 353 339 353 359 325 341 315 2 281 291 353 345 266 190 208 210 203 196 176 187 185 204 168 128 234 177 163 170 189 185 235 268 254 221 227 226 220 215 210 218 179 185 179 183 185 186 188 189
302 223 275 354 345 345 331 24 30 16 323 263 177 303 14 21 340 353 6 35 24 71 32 16 4 4 358 358 29 2 323 344 333 339 311 309 350 329 24 12 355 341 339 345 344 353 317 345 293 298 334 291 275 252 215 209 211 206 183 191 190 160 132 192 241 204 176 120 198 171 238 260 250 225 222 225 223 214 213 213 189 174 179 182 187 188 186 186
342 348 303 335 337 345 347 53 18 348 360 12 350 333 337 331 70 2 1 24 29 14 81 19 36 13 23 22 2 336 322 317 320 355 301 303 321 309 317 356 345 343 344 329 338 331 334 281 266 281 257 272 278 282 294 225 207 214 171 201 192 174 154 174 201 215 195 218 165 158 168 264 240 207 206 226 226 217 215 208 185 170 179 184 187 188 186 184
350 272 284 304 348 340 345 69 25 27 15 352 324 346 349 357 17 25 351 6 342 41 16 31 22 31 51 19 346 314 324 312 15 146 279 303 302 309 332 339 342 341 336 317 333 311 324 318 319 291 289 267 259 263 267 271 214 210 205 175 183 195 189 192 182 177 184 192 222 274 248 258 277 216 196 217 226 220 212 200 172 169 176 185 188 187 183 181
297 292 311 353 354 338 51 31 356 355 350 338 358 338 351 350 360 12 355 336 333 23 43 23 22 89 312 14 314 320 344 314 101 304 296 287 291 321 322 327 342 329 336 329 328 337 331 30 8 315 322 310 303 316 315 264 225 208 201 198 195 199 190 145 134 143 185 209 191 154 225 260 272 288 295 226 224 225 209 188 162 164 176 184 186 183 181 181
274 252 256 332 358 11 49 5 15 339 356 348 341 351 353 349 345 351 360 342 352 19 3 71 322 313 330 336 316 297 322 331 315 217 294 304 287 313 313 323 323 306 295 301 294 290 267 296 327 308 305 258 207 214 221 349 333 287 212 201 194 193 181 141 185 168 198 241 184 194 230 253 277 303 315 296 208 194 189 170 168 166 175 181 181 179 180 179
2 342 320 327 6 358 67 33 51 10 339 356 347 348 341 333 337 346 34 347 354 355 7 339 331 12 353 358 330 342 326 8 325 296 313 280 296 291 301 307 306 301 299 301 311 341 281 274 240 244 251 265 284 291 288 313 288 295 271 209 196 185 181 181 122 141 196 201 188 219 210 255 306 289 297 322 194 168 142 129 156 166 173 174 175 178 179 176
287 54 346 339 309 47 4 2 4 9 345 310 305 336 324 320 326 326 43 319 331 338 325 360 327 358 320 340 339 322 313 315 300 283 273 285 282 287 298 298 296 287 308 335 342 327 282 296 273 248 252 260 278 281 284 289 275 273 277 251 197 180 179 190 176 204 160 117 215 245 224 225 248 279 286 298 89 115 138 147 158 168 170 171 173 176 177 173
32 328 68 177 236 330 347 348 340 327 309 325 315 325 301 333 358 1 339 348 331 46 30 329 325 336 347 345 327 318 312 303 300 290 292 264 290 296 311 306 282 348 11 342 339 312 302 272 292 299 291 292 281 276 275 267 264 270 274 255 203 186 181 190 202 182 148 173 199 231 224 213 240 234 249 257 221 198 162 167 171 172 169 169 169 174 175 173
244 319 65 22 1 335 301 280 291 302 318 323 297 310 326 345 337 12 353 324 343 340 89 312 344 345 338 327 319 274 313 332 302 300 304 296 296 315 303 330 310 3 352 344 337 327 308 242 276 313 307 298 292 283 281 262 258 268 279 240 192 191 192 186 188 174 189 182 193 209 201 223 218 263 249 253 204 340 250 132 112 154 167 169 172 176 176 174
344 38 320 354 299 295 273 291 311 318 304 313 324 350 334 330 341 355 349 355 327 318 351 340 338 334 332 316 266 278 289 250 279 293 295 290 295 273 275 205 294 297 350 331 331 313 1 279 318 317 309 299 292 313 330 331 288 288 319 326 197 192 197 190 181 196 214 254 194 171 170 257 293 264 334 50 55 47 103 110 147 163 169 167 171 176 175 175
262 157 197 311 307 280 287 310 308 298 303 306 331 334 322 341 325 39 303 300 290 320 330 318 319 315 314 310 295 284 291 301 285 279 292 292 284 285 278 194 218 300 329 332 327 313 301 283 315 311 322 303 307 342 329 315 306 312 18 0 343 147 189 176 184 191 158 221 109 110 101 123 252 360 70 38 56 48 37 81 128 152 164 168 168 170 174 174
304 189 125 165 276 279 303 255 274 316 289 342 333 327 323 317 328 332 306 243 298 297 292 297 304 302 292 303 288 262 274 278 279 285 288 280 264 265 247 247 242 259 272 275 291 292 275 299 315 333 320 267 295 330 319 313 315 21 13 350 339 66 97 66 43 27 15 328 149 147 196 198 173 251 78 45 59 53 43 16 62 93 108 129 145 153 161 167